Columbia Airport, CA

10:43 AM PDT on October 14, 2019 (GMT -0700)
Columbia Airport

Weather History for KO22 - August, 2019

Change the Weather History Date:

Monday, August 5, 2019

  Actual Average (KMOD) Record (KMOD)
Temperature  
Mean Temperature 79 °F -  
Max Temperature 96 °F 94 °F 106 °F (1978)
Min Temperature 62 °F 60 °F 50 °F (1950)
Cooling Degree Days 14    
Growing Degree Days 29 (Base 50)    
Moisture  
Dew Point 48 °F    
Average Humidity 38    
Maximum Humidity 63    
Minimum Humidity 14    
Precipitation  
Precipitation 0.00 in - - ()
Sea Level Pressure  
Sea Level Pressure 30.00 in    
Wind  
Wind Speed 1 mph (SW)    
Max Wind Speed 9 mph    
Max Gust Speed 12 mph    
Visibility 10 miles    
Events      
Averages and records for this station are not official NWS values.
T = Trace of Precipitation, MM = Missing Value Source: NWS Daily Summary

Daily Weather History Graph

Daily Weather History Graph

Search for Another Location

Airport or City:

Astronomy

Aug. 05, 2019 Rise Set
Actual Time 6:07 AM PDT 8:06 PM PDT
Civil Twilight 5:39 AM PDT 8:35 PM PDT
Nautical Twilight 5:03 AM PDT 9:10 PM PDT
Astronomical Twilight 4:25 AM PDT 9:48 PM PDT
Moon 11:25 AM PDT (8/5) 11:27 PM PDT (8/5)
Length of Visible Light 14h 56m
Length of Day
13h 58m
Waxing Crescent, 29% of the Moon is Illuminated
Aug 5
Waxing Crescent
Aug 7
First Quarter
Aug 15
Full
Aug 23
Last Quarter
Aug 30
New

Hourly Weather History & Observations

Time (PDT) Temp. Dew Point Humidity Pressure Visibility Wind Dir Wind Speed Gust Speed Precip Events Conditions
12:15 AM 68.0 °F 51.8 °F 56% 30.00 in 10.0 mi Calm Calm - N/A   Clear
12:35 AM 68.0 °F 50.0 °F 52% 30.00 in 10.0 mi Calm Calm - N/A   Clear
12:55 AM 68.0 °F 51.8 °F 56% 30.00 in 10.0 mi Calm Calm - N/A   Clear
1:15 AM 66.2 °F 51.8 °F 60% 30.00 in 10.0 mi Calm Calm - N/A   Clear
1:35 AM 64.4 °F 50.0 °F 59% 30.00 in 10.0 mi Calm Calm - N/A   Clear
1:55 AM 64.4 °F 50.0 °F 59% 30.00 in 10.0 mi Calm Calm - N/A   Clear
2:15 AM 62.6 °F 50.0 °F 63% 30.00 in 10.0 mi Calm Calm - N/A   Clear
2:35 AM 62.6 °F 50.0 °F 63% 30.00 in 10.0 mi Calm Calm - N/A   Clear
2:55 AM 62.6 °F 50.0 °F 63% 30.00 in 10.0 mi Calm Calm - N/A   Clear
3:15 AM 62.6 °F 50.0 °F 63% 30.00 in 10.0 mi Calm Calm - N/A   Clear
3:35 AM 62.6 °F 50.0 °F 63% 30.00 in 10.0 mi Calm Calm - N/A   Clear
3:55 AM 62.6 °F 50.0 °F 63% 30.00 in 10.0 mi Calm Calm - N/A   Clear
4:15 AM 62.6 °F 50.0 °F 63% 30.00 in 10.0 mi Calm Calm - N/A   Clear
4:35 AM 62.6 °F 48.2 °F 59% 29.99 in 10.0 mi Calm Calm - N/A   Clear
4:55 AM 62.6 °F 50.0 °F 63% 29.99 in 10.0 mi Calm Calm - N/A   Clear
5:15 AM 62.6 °F 48.2 °F 59% 29.99 in 10.0 mi Calm Calm - N/A   Clear
5:35 AM 64.4 °F 48.2 °F 56% 30.00 in 10.0 mi Variable 3.5 mph - N/A   Clear
5:55 AM 64.4 °F 48.2 °F 56% 30.00 in 10.0 mi Calm Calm - N/A   Clear
6:35 AM 62.6 °F 48.2 °F 59% 30.01 in 10.0 mi Calm Calm - N/A   Clear
6:55 AM 62.6 °F 50.0 °F 63% 30.01 in 10.0 mi Calm Calm - N/A   Clear
7:15 AM 66.2 °F 50.0 °F 56% 30.01 in 10.0 mi Calm Calm - N/A   Clear
7:35 AM 69.8 °F 53.6 °F 56% 30.01 in 10.0 mi Calm Calm - N/A   Clear
7:55 AM 71.6 °F 55.4 °F 57% 30.02 in 10.0 mi Calm Calm - N/A   Clear
8:15 AM 77.0 °F 53.6 °F 44% 30.02 in 10.0 mi Calm Calm - N/A   Clear
8:35 AM 78.8 °F 51.8 °F 39% 30.02 in 10.0 mi Calm Calm - N/A   Clear
8:55 AM 82.4 °F 50.0 °F 32% 30.02 in 10.0 mi Calm Calm - N/A   Clear
9:15 AM 84.2 °F 51.8 °F 33% 30.02 in 10.0 mi Calm Calm - N/A   Clear
9:35 AM 86.0 °F 50.0 °F 29% 30.03 in 10.0 mi Calm Calm - N/A   Clear
9:55 AM 89.6 °F 48.2 °F 24% 30.03 in 10.0 mi Calm Calm - N/A   Clear
10:15 AM 93.2 °F 44.6 °F 19% 30.03 in 10.0 mi Variable 4.6 mph - N/A   Clear
10:35 AM 93.2 °F 37.4 °F 14% 30.03 in 10.0 mi Calm Calm - N/A   Clear
11:15 AM 93.2 °F 39.2 °F 15% 30.03 in 10.0 mi Calm Calm - N/A   Clear
11:35 AM 93.2 °F 41.0 °F 16% 30.03 in 10.0 mi SW 5.8 mph - N/A   Clear
11:55 AM 93.2 °F 41.0 °F 16% 30.03 in 10.0 mi SW 5.8 mph - N/A   Clear
12:15 PM 93.2 °F 39.2 °F 15% 30.03 in 10.0 mi Variable 3.5 mph - N/A   Clear
12:35 PM 95.0 °F 41.0 °F 15% 30.02 in 10.0 mi SSW 3.5 mph - N/A   Clear
12:55 PM 96.8 °F 39.2 °F 14% 30.02 in 10.0 mi Calm Calm - N/A   Clear
1:15 PM 95.0 °F 41.0 °F 15% 30.02 in 10.0 mi SW 4.6 mph - N/A   Clear
1:35 PM 96.8 °F 41.0 °F 15% 30.01 in 10.0 mi Variable 4.6 mph - N/A   Clear
1:55 PM 96.8 °F 39.2 °F 14% 30.01 in 10.0 mi Calm Calm - N/A   Clear
2:15 PM 95.0 °F 42.8 °F 16% 30.00 in 10.0 mi SSW 4.6 mph 11.5 mph N/A   Clear
2:35 PM 95.0 °F 42.8 °F 16% 30.00 in 10.0 mi SW 4.6 mph - N/A   Clear
2:55 PM 95.0 °F 42.8 °F 16% 30.00 in 10.0 mi SSW 4.6 mph - N/A   Clear
3:15 PM 96.8 °F 44.6 °F 17% 30.00 in 10.0 mi SW 6.9 mph - N/A   Clear
3:35 PM 96.8 °F 44.6 °F 17% 29.99 in 10.0 mi SSW 5.8 mph - N/A   Clear
3:55 PM 95.0 °F 44.6 °F 18% 29.99 in 10.0 mi SW 5.8 mph - N/A   Clear
4:15 PM 95.0 °F 44.6 °F 18% 29.99 in 10.0 mi SSW 9.2 mph - N/A   Clear
4:35 PM 93.2 °F 44.6 °F 19% 29.99 in 10.0 mi SSW 6.9 mph - N/A   Clear
4:55 PM 93.2 °F 46.4 °F 20% 29.99 in 10.0 mi SW 6.9 mph - N/A   Clear
5:15 PM 91.4 °F 46.4 °F 21% 29.99 in 10.0 mi WSW 8.1 mph - N/A   Clear
5:35 PM 93.2 °F 46.4 °F 20% 29.98 in 10.0 mi Variable 4.6 mph - N/A   Clear
5:55 PM 91.4 °F 46.4 °F 21% 29.98 in 10.0 mi WSW 5.8 mph - N/A   Clear
6:15 PM 91.4 °F 46.4 °F 21% 29.97 in 10.0 mi WSW 4.6 mph - N/A   Clear
6:35 PM 91.4 °F 46.4 °F 21% 29.97 in 10.0 mi West 4.6 mph - N/A   Clear
6:55 PM 91.4 °F 46.4 °F 21% 29.97 in 10.0 mi Variable 4.6 mph - N/A   Clear
7:35 PM 87.8 °F 48.2 °F 25% 29.97 in 10.0 mi Variable 4.6 mph - N/A   Clear
7:55 PM 84.2 °F 50.0 °F 30% 29.97 in 10.0 mi Calm Calm - N/A   Clear
8:15 PM 80.6 °F 51.8 °F 37% 29.98 in 10.0 mi Calm Calm - N/A   Clear
8:35 PM 78.8 °F 53.6 °F 42% 29.98 in 10.0 mi Calm Calm - N/A   Clear
8:55 PM 77.0 °F 53.6 °F 44% 29.98 in 10.0 mi Variable 3.5 mph - N/A   Clear
9:15 PM 75.2 °F 51.8 °F 44% 29.98 in 10.0 mi Calm Calm - N/A   Clear
9:35 PM 75.2 °F 51.8 °F 44% 29.98 in 10.0 mi Calm Calm - N/A   Clear
9:55 PM 73.4 °F 51.8 °F 47% 29.99 in 10.0 mi Calm Calm - N/A   Clear
10:15 PM 69.8 °F 51.8 °F 53% 29.99 in 10.0 mi Calm Calm - N/A   Clear
10:35 PM 71.6 °F 51.8 °F 50% 29.98 in 10.0 mi Calm Calm - N/A   Clear
10:55 PM 69.8 °F 51.8 °F 53% 29.98 in 10.0 mi Calm Calm - N/A   Clear
11:15 PM 68.0 °F 51.8 °F 56% 29.98 in 10.0 mi Calm Calm - N/A   Clear
11:35 PM 69.8 °F 51.8 °F 53% 29.97 in 10.0 mi Calm Calm - N/A   Clear
11:55 PM 68.0 °F 51.8 °F 56% 29.97 in 10.0 mi Calm Calm - N/A   Clear